Weather History for Iguazu Aerodrome, Argentina

Change the Weather History Date:

Saturday, October 19, 2013

  Actual Average Record
Temperature  
Mean Temperature 74 °F -  
Max Temperature 87 °F 82 °F - ()
Min Temperature 61 °F 61 °F - ()
Cooling Degree Days 9    
Growing Degree Days 24 (Base 50)    
Moisture  
Dew Point 59 °F    
Average Humidity 66    
Maximum Humidity 100    
Minimum Humidity 22    
Precipitation  
Precipitation 0.00 in - - ()
Sea Level Pressure  
Sea Level Pressure 29.88 in    
Wind  
Wind Speed 4 mph ()    
Max Wind Speed 9 mph    
Max Gust Speed -    
Visibility 9.5 miles    
Events      
T = Trace of Precipitation, MM = Missing Value Source: Averaged Metar Reports

Daily Weather History Graph

Daily Weather History Graph

Search for Another Location

Airport:

Trip Planner

Search our weather history database for the weather conditions in past years. The results will help you decide how hot, cold, wet, or windy it might be!

Date:

Astronomy

Oct. 19, 2013 Rise Set
Actual Time 5:59 AM ART 6:46 PM ART
Civil Twilight 5:35 AM ART 7:10 PM ART
Nautical Twilight 5:08 AM ART 7:37 PM ART
Astronomical Twilight 4:39 AM ART 8:06 PM ART
Moon 7:34 PM ART (10/19) 6:15 AM ART (10/19)
Length of Visible Light 13h 34m
Length of Day
12h 47m
Full, 100% of the Moon is Illuminated
Oct 19
Full
Oct 26
Last Quarter
Nov 3
New
Nov 10
First Quarter
Nov 17
Full

Hourly Weather History & Observations

Time (ART) Temp. Heat Index Dew Point Humidity Pressure Visibility Wind Dir Wind Speed Gust Speed Precip Events Conditions
12:00 AM 66.2 °F - 60.8 °F 83% 29.89 in - South 4.6 mph - N/A   Clear
1:00 AM 66.2 °F - 60.8 °F 83% 29.89 in - South 3.5 mph - N/A   Clear
2:00 AM 64.4 °F - 62.6 °F 94% 29.89 in - South 3.5 mph - N/A   Clear
3:00 AM 64 °F - 62 °F 90% 29.83 in 12 mi South 3.5 mph - -  
3:00 AM 64.4 °F - 62.6 °F 94% 29.89 in - South 3.5 mph - N/A   Clear
4:00 AM 64.4 °F - 60.8 °F 88% 29.89 in - South 2.3 mph - N/A   Clear
5:00 AM 64.4 °F - 62.6 °F 94% 29.89 in - South 3.5 mph - N/A   Clear
6:00 AM 62.6 °F - 60.8 °F 94% 29.92 in - NE 3.5 mph - N/A   Clear
7:00 AM 60.8 °F - 60.8 °F 100% 29.92 in - NE 5.8 mph - N/A   Clear
8:00 AM 64.4 °F - 59.0 °F 83% 29.95 in - NE 2.3 mph - N/A   Clear
9:00 AM 71 °F - 62 °F 65% 29.91 in 12 mi NE 4.6 mph - -  
9:00 AM 69.8 °F - 62.6 °F 78% 29.98 in - NE 4.6 mph - N/A   Clear
10:00 AM 75.2 °F - 62.6 °F 65% 29.98 in - NE 5.8 mph - N/A   Clear
11:00 AM 78.8 °F - 60.8 °F 54% 29.95 in 6.2 mi SSE 4.6 mph - N/A   Partly Cloudy
12:00 PM 80.6 °F 81.1 °F 59.0 °F 48% 29.95 in 6.2 mi SSE 6.9 mph - N/A   Partly Cloudy
1:00 PM 82.4 °F 81.7 °F 55.4 °F 39% 29.92 in 6.2 mi South 6.9 mph - N/A   Partly Cloudy
2:00 PM 84.2 °F 83.0 °F 55.4 °F 37% 29.89 in - South 6.9 mph - N/A   Clear
3:00 PM 86 °F - 53 °F 22% 29.80 in 12 mi SW 9.2 mph - -  
3:00 PM 86.0 °F 84.2 °F 53.6 °F 33% 29.86 in - SW 9.2 mph - N/A   Clear
4:00 PM 86.0 °F 84.2 °F 53.6 °F 33% 29.86 in - South 9.2 mph - N/A   Clear
5:00 PM 84.2 °F - 51.8 °F 33% 29.83 in - SE 4.6 mph - N/A   Clear
6:00 PM 82.4 °F 81.7 °F 55.4 °F 39% 29.83 in - SE 4.6 mph - N/A   Clear
7:00 PM 77.0 °F - 59.0 °F 54% 29.83 in - SSE 2.3 mph - N/A   Clear
8:00 PM 73.4 °F - 59.0 °F 61% 29.83 in - ESE 3.5 mph - N/A   Clear
9:00 PM 69 °F - 58 °F 61% 29.79 in 12 mi NNE 3.5 mph - -   Clear
9:00 PM 68.0 °F - 59.0 °F 73% 29.83 in - NNE 3.5 mph - N/A   Clear
10:00 PM 68.0 °F - 59.0 °F 73% 29.86 in - ENE 3.5 mph - N/A   Clear
11:00 PM 64.4 °F - 59.0 °F 83% 29.83 in - NE 5.8 mph - N/A   Clear